Voltar ao catálogo

STARLINK-4538

AtivoComunicaçõesVLEO
NORAD 53430·PAYLOAD·🇺🇸 United States

Lançado Aug 10, 2022 de Cape Canaveral Space Force Station

Loading…

Próximas Passagens (próximas 24 horas)

TLE

AtualizadoSource: CelesTrak SupGP

Época: Sep 14, 2026, 22:18 UTC

1 53430C 22097AU  26257.92965278 -.00005466  00000+0 -15643-3 0  2576
2 53430  53.1586 319.6490 0001031  86.7330  22.4341 15.35389872    17

Acompanhe STARLINK-4538 em tempo real com AllMySat

Download on the App Store